User: anonymous   Login
Location: Unspecified
(0.0000°N, 0.0000°E)
Time: 06:45:02
(UTC+00:00)
Language:

ARIANE 5 DEB (SYLDA) - Orbit

View from above orbital plane
View from above orbital plane
View from above satellite
View from above satellite

Ground track
Ground track

The orbit data is extracted from the following two-line orbital elements,

1 26722U 01011D   17015.80397020 -.00000071  00000-0  35777-2 0  9995
2 26722   2.0076  70.5588 7066172 279.0787  73.3563  2.22877407129163
Epoch (UTC): 15 January 2017 19:17:43
Eccentricity: 0.7066172
inclination: 2.0076°
perigee height: 885 km
apogee height: 35871 km
right ascension of ascending node: 70.5588°
argument of perigee: 279.0787°
revolutions per day: 2.22877407
mean anomaly at epoch: 73.3563°
orbit number at epoch: 12916

The dashed part of the orbit path shows where the satellite is in the earth's shadow,  

DLR